Terminal Aerodrome Forecast
Issued by NWS Houston/Galveston TX

Home | Current Version | Previous Version | Text Only | Print | Product List | Glossary On
Versions: 1 2 3 4 5 6 7 8 9 10 11 12 13 14 15 16 17 18 19 20 21 22 23 24 25 26 27 28 29 30 31
000
FTUS44 KHGX 270253 AAA
TAFHOU
TAF AMD
KHOU 270253Z 2703/2724 00000KT P6SM SCT100 BKN210 BKN250
     FM270600 VRB04KT P6SM BKN250
     FM271300 VRB04KT P6SM VCSH BKN025 PROB30 2713/2716 SHRA
     FM271600 VRB05KT P6SM VCTS BKN035CB PROB30 2716/2720 TSRA
     FM272200 18005KT P6SM SCT050 BKN120=

USA.gov is the U.S. government's official web portal to all federal, state and local government web resources and services.